Home   Weather   Yarmouth County   Past weeks

Flag for Canada Past Weather in Yarmouth County, Nova Scotia, Canada — Yesterday and Last 2 Weeks

Now
55 °F

Passing clouds.


Feels Like: 51 °F
Forecast: N/A
Wind: 18 mph from North

Location: Yarmouth

Current Time: Sep 24, 2016 at 6:06:59 PM

Latest Report: Sep 24, 2016 at 5:00 PM


Visibility: 15 mi

Pressure: 29.96 "Hg

Humidity: 55%

Dew Point: 39 °F

Location of Yarmouth CountyLocation

Past Weather in Yarmouth County — Graph

°F

Yarmouth County Temperature Yesterday

Maximum temperature yesterday: 66 °F (at 2:00 PM)
Minimum temperature yesterday: 50 °F (at 11:00 PM)
Average temperature yesterday: 58 °F

High & Low Weather Summary for the Past Weeks

 TemperatureHumidityPressure
High81 °F (Sep 10, 1:00 PM)100% (Sep 9, 8:02 PM)30.38 "Hg (Sep 9, 8:02 PM)
Low43 °F (Sep 16, 6:00 AM)45% (Sep 15, 2:00 PM)29.81 "Hg (Sep 9, 5:00 PM)
Average61 °F88%30.10 "Hg
* Reported Sep 9 5:00 PM — Sep 24 5:00 PM, Yarmouth County, Weather by CustomWeather, © 2016

Note: Actual official high and low records may vary slightly from our data, if they occured in-between our weather recording intervals... More about our weather records

Advertising

Yarmouth County Weather History for the Previous 24 Hours

Scroll right to see more
 ConditionsComfort  
Time TempWeatherWind HumidityBarometerVisibility
5:00 PM
Sat, Sep 24
55 °FPassing clouds.18 mph55%29.96 "Hg15 mi
4:00 PM55 °FPassing clouds.20 mph59%29.96 "Hg15 mi
3:00 PM55 °FPassing clouds.23 mph63%29.97 "Hg15 mi
2:00 PM57 °FPassing clouds.22 mph59%29.98 "Hg15 mi
1:00 PM59 °FPassing clouds.14 mph68%29.99 "Hg15 mi
12:00 PM57 °FPassing clouds.14 mph72%30.00 "Hg15 mi
11:00 AM59 °FPassing clouds.10 mph63%30.01 "Hg15 mi
10:00 AM55 °FPassing clouds.10 mph77%30.01 "Hg15 mi
9:00 AM54 °FPassing clouds.8 mph88%30.03 "Hg15 mi
8:00 AM48 °FPassing clouds.8 mph100%30.03 "Hg15 mi
7:00 AM46 °FPassing clouds.6 mph93%30.02 "Hg12 mi
6:00 AM45 °FClear.5 mph100%30.02 "Hg15 mi
5:00 AM45 °FClear.2 mph100%30.02 "Hg15 mi
3:00 AM48 °FClear.9 mph100%30.00 "Hg15 mi
2:00 AM46 °FPassing clouds.8 mph100%29.98 "Hg15 mi
1:00 AM48 °FPassing clouds.8 mph100%29.98 "Hg15 mi
12:00 AM48 °FPassing clouds.7 mph94%29.99 "Hg15 mi
11:00 PM
Fri, Sep 23
50 °FPassing clouds.9 mph100%29.99 "Hg10 mi
10:00 PM54 °FPassing clouds.12 mph94%29.98 "Hg10 mi
9:00 PM54 °FPassing clouds.15 mph94%29.98 "Hg10 mi
8:00 PM54 °FOvercast.18 mph94%29.95 "Hg10 mi
7:51 PM54 °FOvercast.15 mph100%29.95 "Hg10 mi
7:00 PM55 °FDrizzle. Partly sunny.17 mph94%29.94 "Hg12 mi
6:00 PM57 °FLight rain. Fog.22 mph94%29.92 "Hg3 mi
Weather by CustomWeather, © 2016

See weather overviewHow to use our weather pages